Location: Friedrichshafen
(47.6598°N, 9.4819°E)
Time: 16:32:43
(UTC+01:00)

OTV 5 (USA 277) - Visible Passes

Search period start: 18 November 2017 00:00
Search period end: 28 November 2017 00:00
Orbit: 404 x 417 km, 43.0° (Epoch: 07 September)

Date Brightness Start Highest point End Pass type
(mag) Time Alt. Az. Time Alt. Az. Time Alt. Az.
18 Nov ? 04:53:27 17° SE 04:53:27 17° SE 04:54:27 10° ESE visible
18 Nov ? 06:26:15 10° WSW 06:28:12 15° SSW 06:30:10 10° S visible
19 Nov ? 05:37:38 19° SSW 05:37:38 19° SSW 05:39:45 10° SSE visible
20 Nov ? 04:49:06 10° SE 04:49:06 10° SE 04:49:07 10° SE visible
